Bookmark and Share
Track history (hours):
 

Gurli

Last reported at 2014-Apr-23 23:33 UTC. Time now 2014-Apr-24 00:25 UTC.
Position N 59°20' E 018°05'.

Length 21 m.

Type: Passenger vessel. MMSI: 265687640.

NotesDate/timePositionNaut miles runAvg speedWind from/ knotsBaromVisibWave heightAir tempDewpointWater temp
2014-Apr-23 23:33N 59°20' E 018°05'0 0.0
2014-Apr-23 22:33N 59°20' E 018°05'0 0.0
2014-Apr-23 21:33N 59°20' E 018°05'0 0.0
2014-Apr-23 20:33N 59°20' E 018°05'0 0.0
2014-Apr-23 19:33N 59°20' E 018°05'0 0.0
2014-Apr-23 18:33N 59°20' E 018°05'2 2.3
2014-Apr-23 17:33N 59°20' E 018°09'2 2.0
2014-Apr-23 16:33N 59°19' E 018°07'1 0.8
2014-Apr-23 15:33N 59°19' E 018°08'0 0.3
2014-Apr-23 14:33N 59°19' E 018°09'1 1.1
2014-Apr-23 13:33N 59°19' E 018°07'2 1.8
2014-Apr-23 12:31N 59°20' E 018°09'2 2.4
2014-Apr-23 11:33N 59°20' E 018°05'2 2.0
2014-Apr-23 10:32N 59°21' E 018°08'2 1.9
2014-Apr-23 09:33N 59°19' E 018°06'2 2.0
2014-Apr-23 08:31N 59°19' E 018°10'3 2.7
2014-Apr-23 07:32N 59°20' E 018°05'2 1.9
2014-Apr-23 06:33N 59°19' E 018°08'0 0.2
2014-Apr-23 05:33N 59°19' E 018°08'1 1.2
2014-Apr-23 04:27N 59°20' E 018°09'2 2.6
2014-Apr-23 03:31N 59°20' E 018°05'0 0.0
2014-Apr-23 02:32N 59°20' E 018°05'0 0.0
2014-Apr-23 01:32N 59°20' E 018°05'0 0.0
2014-Apr-23 00:32N 59°20' E 018°05'0 0.0
2014-Apr-22 23:32N 59°20' E 018°05'0 0.0
2014-Apr-22 22:32N 59°20' E 018°05'0 0.0
2014-Apr-22 21:32N 59°20' E 018°05'0 0.0
2014-Apr-22 20:32N 59°20' E 018°05'0 0.0
2014-Apr-22 19:32N 59°20' E 018°05'0 0.0
2014-Apr-22 18:33N 59°20' E 018°05'2 2.3
2014-Apr-22 17:33N 59°21' E 018°09'2 1.8
2014-Apr-22 16:33N 59°19' E 018°07'1 0.7
2014-Apr-22 15:33N 59°19' E 018°09'0 0.3
2014-Apr-22 14:33N 59°19' E 018°09'1 1.2
2014-Apr-22 13:33N 59°19' E 018°07'2 1.9
2014-Apr-22 12:29N 59°21' E 018°09'2 2.5
2014-Apr-22 11:33N 59°20' E 018°05'2 2.2
2014-Apr-22 10:33N 59°21' E 018°09'2 2.1
2014-Apr-22 09:33N 59°19' E 018°06'2 1.9
2014-Apr-22 08:32N 59°19' E 018°10'3 2.5
2014-Apr-22 07:29N 59°20' E 018°05'2 2.1
2014-Apr-22 06:33N 59°19' E 018°08'0 0.0
2014-Apr-22 05:33N 59°19' E 018°08'2 1.4
2014-Apr-22 04:26N 59°21' E 018°09'2 2.6
2014-Apr-22 03:31N 59°20' E 018°05'0 0.0
2014-Apr-22 02:34N 59°20' E 018°05'0 0.0
2014-Apr-22 01:34N 59°20' E 018°05'0 0.0
2014-Apr-22 00:34N 59°20' E 018°05'0 0.0
2014-Apr-21 23:34N 59°20' E 018°05'0 0.0
2014-Apr-21 22:31N 59°20' E 018°05'0 0.0
2014-Apr-21 21:31N 59°20' E 018°05'0 0.0
2014-Apr-21 20:31N 59°20' E 018°05'0 0.0
2014-Apr-21 19:31N 59°20' E 018°05'0 0.0
2014-Apr-21 18:31N 59°20' E 018°05'0 0.3
2014-Apr-21 17:31N 59°20' E 018°05'2 2.4
2014-Apr-21 16:31N 59°20' E 018°09'2 2.5
2014-Apr-21 15:33N 59°20' E 018°05'3 2.6
2014-Apr-21 14:33N 59°19' E 018°10'1 1.0
2014-Apr-21 13:33N 59°19' E 018°07'0 0.0
2014-Apr-21 12:33N 59°19' E 018°07'2 1.7
2014-Apr-21 11:33N 59°20' E 018°05'2 2.3
2014-Apr-21 10:32N 59°21' E 018°09'2 2.0
2014-Apr-21 09:33N 59°19' E 018°06'2 2.0
2014-Apr-21 08:32N 59°19' E 018°10'3 2.6
2014-Apr-21 07:32N 59°20' E 018°05'0 0.0
2014-Apr-21 06:32N 59°20' E 018°05'0 0.0
2014-Apr-21 05:32N 59°20' E 018°05'0 0.0
2014-Apr-21 04:32N 59°20' E 018°05'0 0.0
2014-Apr-21 03:32N 59°20' E 018°05'0 0.0
2014-Apr-21 02:32N 59°20' E 018°05'0 0.0
2014-Apr-21 01:32N 59°20' E 018°05'0 0.0
2014-Apr-21 00:32N 59°20' E 018°05'0 0.0
2014-Apr-20 23:32N 59°20' E 018°05'0 0.0
2014-Apr-20 22:32N 59°20' E 018°05'0 0.0
2014-Apr-20 21:32N 59°20' E 018°05'0 0.0
2014-Apr-20 20:32N 59°20' E 018°05'0 0.0
2014-Apr-20 19:32N 59°20' E 018°05'0 0.0
2014-Apr-20 18:32N 59°20' E 018°05'0 0.0
2014-Apr-20 17:32N 59°20' E 018°05'2 2.3
2014-Apr-20 16:30N 59°21' E 018°09'2 2.5
2014-Apr-20 15:33N 59°20' E 018°05'3 2.6
2014-Apr-20 14:31N 59°19' E 018°10'2 1.6
2014-Apr-20 13:33N 59°19' E 018°07'0 0.4
2014-Apr-20 12:33N 59°19' E 018°07'2 1.5
2014-Apr-20 11:33N 59°20' E 018°05'2 2.4
2014-Apr-20 10:32N 59°21' E 018°09'2 2.1
2014-Apr-20 09:33N 59°19' E 018°06'2 1.8
2014-Apr-20 08:33N 59°19' E 018°09'2 2.3
2014-Apr-20 07:32N 59°20' E 018°05'0 0.0
2014-Apr-20 06:32N 59°20' E 018°05'0 0.0
2014-Apr-20 05:32N 59°20' E 018°05'0 0.0
2014-Apr-20 04:32N 59°20' E 018°05'0 0.0
2014-Apr-20 03:32N 59°20' E 018°05'0 0.0
2014-Apr-20 02:32N 59°20' E 018°05'0 0.0
2014-Apr-20 01:32N 59°20' E 018°05'0 0.0
2014-Apr-20 00:32N 59°20' E 018°05'0 0.0
2014-Apr-19 23:32N 59°20' E 018°05'0 0.0
2014-Apr-19 22:32N 59°20' E 018°05'0 0.0
2014-Apr-19 21:32N 59°20' E 018°05'0 0.0
2014-Apr-19 20:32N 59°20' E 018°05'0 0.0
2014-Apr-19 19:32N 59°20' E 018°05'0 0.0
2014-Apr-19 18:32N 59°20' E 018°05'0 0.0
2014-Apr-19 17:32N 59°20' E 018°05'0 0.0
2014-Apr-19 16:33N 59°20' E 018°05'3 2.5
2014-Apr-19 15:32N 59°20' E 018°10'2 2.1
2014-Apr-19 14:33N 59°19' E 018°06'1 1.5
2014-Apr-19 13:33N 59°19' E 018°09'0 0.1
2014-Apr-19 12:33N 59°19' E 018°08'1 1.3
2014-Apr-19 11:33N 59°19' E 018°06'1 0.8
2014-Apr-19 10:33N 59°20' E 018°05'3 2.5
2014-Apr-19 09:32N 59°19' E 018°10'1 1.5
2014-Apr-19 08:33N 59°19' E 018°07'1 1.0
2014-Apr-19 07:33N 59°19' E 018°09'2 2.1
2014-Apr-19 06:32N 59°20' E 018°05'0 0.0
2014-Apr-19 05:32N 59°20' E 018°05'0 0.0
2014-Apr-19 04:32N 59°20' E 018°05'0 0.0
2014-Apr-19 03:32N 59°20' E 018°05'0 0.0
2014-Apr-19 02:32N 59°20' E 018°05'0 0.0
2014-Apr-19 01:32N 59°20' E 018°05'0 0.0
2014-Apr-19 00:32N 59°20' E 018°05'0 0.0
2014-Apr-18 23:32N 59°20' E 018°05'0 0.0
2014-Apr-18 22:32N 59°20' E 018°05'0 0.0
2014-Apr-18 21:32N 59°20' E 018°05'0 0.0
2014-Apr-18 20:32N 59°20' E 018°05'0 0.0
2014-Apr-18 19:32N 59°20' E 018°05'0 0.0
2014-Apr-18 18:32N 59°20' E 018°05'0 0.0
2014-Apr-18 17:33N 59°20' E 018°05'2 2.3
2014-Apr-18 16:32N 59°20' E 018°09'2 2.3
2014-Apr-18 15:33N 59°20' E 018°05'2 2.3
2014-Apr-18 14:33N 59°19' E 018°10'2 1.6
2014-Apr-18 13:33N 59°19' E 018°07'0 0.4
2014-Apr-18 12:33N 59°19' E 018°07'2 1.7
2014-Apr-18 11:31N 59°20' E 018°05'2 2.4
2014-Apr-18 10:31N 59°21' E 018°09'2 2.2
2014-Apr-18 09:33N 59°19' E 018°06'2 1.8
2014-Apr-18 08:33N 59°19' E 018°09'2 2.4
2014-Apr-18 07:33N 59°20' E 018°05'0 0.0
2014-Apr-18 06:33N 59°20' E 018°05'0 0.0
2014-Apr-18 05:33N 59°20' E 018°05'0 0.0
2014-Apr-18 04:33N 59°20' E 018°05'0 0.0
2014-Apr-18 03:33N 59°20' E 018°05'0 0.0
2014-Apr-18 02:33N 59°20' E 018°05'0 0.0
2014-Apr-18 01:33N 59°20' E 018°05'0 0.0
2014-Apr-18 00:33N 59°20' E 018°05'0 0.0
2014-Apr-17 23:33N 59°20' E 018°05'0 0.0
2014-Apr-17 22:33N 59°20' E 018°05'0 0.0
2014-Apr-17 21:33N 59°20' E 018°05'0 0.0
2014-Apr-17 20:33N 59°20' E 018°05'0 0.0
2014-Apr-17 19:33N 59°20' E 018°05'0 0.0
2014-Apr-17 18:33N 59°20' E 018°05'2 2.3
2014-Apr-17 17:32N 59°21' E 018°09'2 2.1
2014-Apr-17 16:33N 59°19' E 018°07'1 0.8
2014-Apr-17 15:33N 59°19' E 018°08'0 0.1
2014-Apr-17 14:33N 59°19' E 018°08'1 0.9
2014-Apr-17 13:33N 59°19' E 018°07'2 1.9
2014-Apr-17 12:30N 59°20' E 018°09'2 2.6
2014-Apr-17 11:33N 59°20' E 018°05'2 2.2
2014-Apr-17 10:33N 59°21' E 018°09'2 2.1
2014-Apr-17 09:33N 59°19' E 018°06'2 1.9
2014-Apr-17 08:33N 59°19' E 018°10'2 1.7
2014-Apr-17 07:29N 59°19' E 018°06'1 0.8
2014-Apr-17 06:33N 59°19' E 018°07'0 0.4
2014-Apr-17 05:34N 59°19' E 018°08'1 1.2
2014-Apr-17 04:28N 59°20' E 018°09'2 2.6
2014-Apr-17 03:33N 59°20' E 018°05'0 0.0
2014-Apr-17 02:33N 59°20' E 018°05'0 0.0
2014-Apr-17 01:33N 59°20' E 018°05'0 0.0
2014-Apr-17 00:33N 59°20' E 018°05'0 0.0
2014-Apr-16 23:33N 59°20' E 018°05'0 0.0
2014-Apr-16 22:33N 59°20' E 018°05'0 0.0
2014-Apr-16 21:33N 59°20' E 018°05'0 0.0
2014-Apr-16 20:33N 59°20' E 018°05'0 0.0
2014-Apr-16 19:33N 59°20' E 018°05'0 0.0
2014-Apr-16 18:32N 59°20' E 018°05'2 2.4
2014-Apr-16 17:33N 59°21' E 018°09'2 2.1
2014-Apr-16 16:33N 59°19' E 018°07'1 0.9
2014-Apr-16 15:33N 59°19' E 018°08'0 0.2
2014-Apr-16 14:33N 59°19' E 018°08'1 0.7
2014-Apr-16 13:33N 59°19' E 018°07'2 1.8
2014-Apr-16 12:31N 59°20' E 018°09'2 2.3
2014-Apr-16 11:34N 59°20' E 018°05'2 1.9
2014-Apr-16 10:33N 59°21' E 018°08'2 2.0
2014-Apr-16 09:33N 59°19' E 018°06'2 1.8
2014-Apr-16 08:31N 59°19' E 018°10'3 2.7
2014-Apr-16 07:32N 59°20' E 018°05'2 1.7
2014-Apr-16 06:33N 59°19' E 018°07'0 0.4
2014-Apr-16 05:33N 59°19' E 018°08'1 1.2
2014-Apr-16 04:27N 59°20' E 018°09'2 2.5
2014-Apr-16 03:31N 59°20' E 018°05'0 0.0
2014-Apr-16 02:32N 59°20' E 018°05'0 0.0
2014-Apr-16 01:29N 59°20' E 018°05'0 0.0
2014-Apr-16 00:32N 59°20' E 018°05'0 0.0
2014-Apr-15 23:32N 59°20' E 018°05'0 0.0
2014-Apr-15 22:32N 59°20' E 018°05'0 0.0
2014-Apr-15 21:32N 59°20' E 018°05'0 0.0
2014-Apr-15 20:32N 59°20' E 018°05'0 0.0
2014-Apr-15 19:32N 59°20' E 018°05'0 0.1
2014-Apr-15 18:33N 59°20' E 018°05'2 2.4
2014-Apr-15 17:33N 59°20' E 018°10'1 1.5
2014-Apr-15 16:33N 59°19' E 018°07'1 0.8
2014-Apr-15 15:33N 59°19' E 018°09'0 0.4
2014-Apr-15 14:33N 59°19' E 018°08'1 0.3
2014-Apr-15 12:34N 59°19' E 018°07'2 1.8
2014-Apr-15 11:29N 59°20' E 018°09'2 2.5
2014-Apr-15 10:34N 59°20' E 018°05'2 1.8
2014-Apr-15 09:34N 59°21' E 018°08'2 1.9
2014-Apr-15 08:33N 59°19' E 018°06'2 1.7
2014-Apr-15 07:34N 59°19' E 018°10'3 2.6
2014-Apr-15 06:34N 59°20' E 018°05'2 1.7
2014-Apr-15 05:34N 59°19' E 018°07'1 0.6
2014-Apr-15 03:33N 59°19' E 018°10'3 2.6
2014-Apr-15 02:34N 59°20' E 018°05'0 0.0
2014-Apr-15 01:32N 59°20' E 018°05'0 0.0
2014-Apr-15 00:32N 59°20' E 018°05'0 0.0
2014-Apr-14 23:32N 59°20' E 018°05'0 0.0
2014-Apr-14 22:32N 59°20' E 018°05'0 0.0
2014-Apr-14 21:32N 59°20' E 018°05'0 0.0
2014-Apr-14 20:32N 59°20' E 018°05'0 0.0
2014-Apr-14 19:32N 59°20' E 018°05'0 0.0
2014-Apr-14 18:32N 59°20' E 018°05'0 0.0
2014-Apr-14 17:34N 59°20' E 018°05'2 2.2
2014-Apr-14 16:33N 59°20' E 018°09'2 1.6
2014-Apr-14 15:34N 59°19' E 018°07'0 0.4
2014-Apr-14 14:34N 59°19' E 018°08'0 0.0
2014-Apr-14 13:33N 59°19' E 018°08'2 0.7
2014-Apr-14 10:33N 59°20' E 018°05'2 1.9
2014-Apr-14 09:32N 59°21' E 018°08'2 2.0
2014-Apr-14 08:33N 59°19' E 018°06'2 1.8
2014-Apr-14 07:33N 59°19' E 018°10'3 2.6
2014-Apr-14 06:33N 59°20' E 018°05'2 1.7
2014-Apr-14 05:33N 59°19' E 018°07'  

Dump ship's entire track history

sailing weather and tide predictions

Gurli — SLEG — position and weather